Weather History for West Bend, WI

Change the Weather History Date:

Saturday, October 26, 2013

  Actual Average Record
Temperature  
Mean Temperature 46 °F -  
Max Temperature 50 °F 55 °F 81 °F (1927)
Min Temperature 41 °F 37 °F 18 °F (1962)
Degree Days  
Heating Degree Days 20    
Moisture  
Dew Point 28 °F    
Average Humidity 52    
Maximum Humidity 66    
Minimum Humidity 37    
Precipitation  
Precipitation 0.00 in - - ()
Sea Level Pressure  
Sea Level Pressure 29.87 in    
Wind  
Wind Speed 15 mph (West)    
Max Wind Speed 21 mph    
Max Gust Speed 32 mph    
Visibility 10 miles    
Events      
Averages and records for this station are not official NWS values.
T = Trace of Precipitation, MM = Missing Value Source: NWS Daily Summary

Daily Weather History Graph

Daily Weather History Graph

Search for Another Location

Airport:

Trip Planner

Search our weather history database for the weather conditions in past years. The results will help you decide how hot, cold, wet, or windy it might be!

Date:

Astronomy

Oct. 26, 2013 Rise Set
Actual Time 7:20 AM CDT 5:51 PM CDT
Civil Twilight 6:51 AM CDT 6:21 PM CDT
Nautical Twilight 6:17 AM CDT 6:54 PM CDT
Astronomical Twilight 5:44 AM CDT 7:27 PM CDT
Moon No Moon Rise 1:37 PM CDT (10/26)
Length of Visible Light 11h 30m
Length of Day
10h 31m
Waning Gibbous, 53% of the Moon is Illuminated
Oct 26
Waning Gibbous
Oct 26
Last Quarter
Nov 3
New
Nov 9
First Quarter
Nov 17
Full

Hourly Weather History & Observations

Time (CDT) Temp. Windchill Dew Point Humidity Pressure Visibility Wind Dir Wind Speed Gust Speed Precip Events Conditions
12:15 AM 46.4 °F 38.7 °F 21.2 °F 37% 29.83 in 10.0 mi SW 20.7 mph 32.2 mph N/A   Mostly Cloudy
12:35 AM 44.6 °F 37.2 °F 21.2 °F 39% 29.83 in 10.0 mi SW 17.3 mph 32.2 mph N/A   Overcast
12:55 AM 44.6 °F 36.4 °F 23.0 °F 43% 29.81 in 10.0 mi SW 20.7 mph 31.1 mph N/A   Scattered Clouds
1:15 AM 44.6 °F 36.4 °F 23.0 °F 43% 29.80 in 10.0 mi SW 20.7 mph 28.8 mph N/A   Clear
1:35 AM 44.6 °F 37.4 °F 23.0 °F 43% 29.79 in 10.0 mi SW 16.1 mph 27.6 mph N/A   Clear
1:55 AM 44.6 °F 37.4 °F 23.0 °F 43% 29.78 in 10.0 mi WSW 16.1 mph 27.6 mph N/A   Scattered Clouds
2:15 AM 44.6 °F 36.6 °F 23.0 °F 43% 29.77 in 10.0 mi WSW 19.6 mph 32.2 mph N/A   Overcast
2:35 AM 46.4 °F 40.4 °F 23.0 °F 40% 29.77 in 10.0 mi WSW 13.8 mph 25.3 mph N/A   Overcast
2:55 AM 46.4 °F 39.5 °F 24.8 °F 43% 29.76 in 10.0 mi WSW 17.3 mph 27.6 mph N/A   Overcast
3:15 AM 46.4 °F 39.0 °F 24.8 °F 43% 29.75 in 10.0 mi WSW 19.6 mph 26.5 mph N/A   Overcast
3:35 AM 44.6 °F 36.6 °F 24.8 °F 46% 29.74 in 10.0 mi WSW 19.6 mph 29.9 mph N/A   Overcast
3:55 AM 44.6 °F 37.2 °F 24.8 °F 46% 29.74 in 10.0 mi WSW 17.3 mph 27.6 mph N/A   Overcast
4:15 AM 44.6 °F 38.1 °F 24.8 °F 46% 29.73 in 10.0 mi WSW 13.8 mph 26.5 mph N/A   Scattered Clouds
4:35 AM 44.6 °F 37.2 °F 26.6 °F 49% 29.73 in 10.0 mi WSW 17.3 mph 27.6 mph N/A   Clear
4:55 AM 44.6 °F 37.8 °F 26.6 °F 49% 29.73 in 10.0 mi WSW 15.0 mph 25.3 mph N/A   Clear
5:55 AM 42.8 °F 36.2 °F 26.6 °F 53% 29.74 in 10.0 mi WSW 12.7 mph 18.4 mph N/A   Mostly Cloudy
6:15 AM 42.8 °F 35.4 °F 28.4 °F 57% 29.74 in 10.0 mi WSW 15.0 mph 24.2 mph N/A   Scattered Clouds
6:35 AM 42.8 °F 36.2 °F 28.4 °F 57% 29.74 in 10.0 mi WSW 12.7 mph 20.7 mph N/A   Scattered Clouds
6:55 AM 42.8 °F 35.8 °F 28.4 °F 57% 29.75 in 10.0 mi WSW 13.8 mph 19.6 mph N/A   Scattered Clouds
7:15 AM 42.8 °F 36.6 °F 28.4 °F 57% 29.75 in 10.0 mi WSW 11.5 mph 17.3 mph N/A   Mostly Cloudy
7:35 AM 42.8 °F 36.6 °F 30.2 °F 61% 29.75 in 10.0 mi West 11.5 mph 18.4 mph N/A   Mostly Cloudy
7:55 AM 42.8 °F 36.6 °F 30.2 °F 61% 29.76 in 10.0 mi West 11.5 mph 18.4 mph N/A   Scattered Clouds
8:15 AM 42.8 °F 36.2 °F 30.2 °F 61% 29.77 in 10.0 mi West 12.7 mph 19.6 mph N/A   Clear
8:35 AM 42.8 °F 36.2 °F 32.0 °F 66% 29.78 in 10.0 mi West 12.7 mph - N/A   Mostly Cloudy
8:55 AM 44.6 °F 38.8 °F 32.0 °F 61% 29.78 in 10.0 mi West 11.5 mph 17.3 mph N/A   Mostly Cloudy
9:15 AM 46.4 °F 40.7 °F 32.0 °F 57% 29.78 in 10.0 mi WNW 12.7 mph 20.7 mph N/A   Scattered Clouds
9:35 AM 46.4 °F 40.7 °F 32.0 °F 57% 29.79 in 10.0 mi WNW 12.7 mph 23.0 mph N/A   Clear
9:55 AM 46.4 °F 39.0 °F 32.0 °F 57% 29.79 in 10.0 mi NW 19.6 mph 27.6 mph N/A   Clear
10:15 AM 46.4 °F 39.0 °F 32.0 °F 57% 29.80 in 10.0 mi NW 19.6 mph 25.3 mph N/A   Scattered Clouds
10:35 AM 46.4 °F 39.8 °F 32.0 °F 57% 29.81 in 10.0 mi NW 16.1 mph 24.2 mph N/A   Mostly Cloudy
10:55 AM 48.2 °F - 32.0 °F 54% 29.82 in 10.0 mi NNW 15.0 mph 26.5 mph N/A   Scattered Clouds
11:15 AM 46.4 °F 40.4 °F 32.0 °F 57% 29.83 in 10.0 mi NW 13.8 mph 19.6 mph N/A   Mostly Cloudy
11:35 AM 46.4 °F 41.5 °F 30.2 °F 53% 29.84 in 10.0 mi NW 10.4 mph 20.7 mph N/A   Overcast
12:15 PM 46.4 °F 39.5 °F 30.2 °F 53% 29.86 in 10.0 mi NW 17.3 mph 23.0 mph N/A   Overcast
12:35 PM 50.0 °F - 28.4 °F 43% 29.85 in 10.0 mi WNW 15.0 mph 24.2 mph N/A   Mostly Cloudy
12:55 PM 50.0 °F - 28.4 °F 43% 29.86 in 10.0 mi WNW 18.4 mph 26.5 mph N/A   Mostly Cloudy
1:15 PM 50.0 °F - 26.6 °F 40% 29.86 in 10.0 mi WNW 15.0 mph 26.5 mph N/A   Scattered Clouds
1:35 PM 50.0 °F - 24.8 °F 37% 29.87 in 10.0 mi WNW 18.4 mph 27.6 mph N/A   Mostly Cloudy
1:55 PM 46.4 °F 38.7 °F 23.0 °F 40% 29.88 in 10.0 mi WNW 20.7 mph 28.8 mph N/A   Overcast
2:15 PM 46.4 °F 39.2 °F 23.0 °F 40% 29.89 in 10.0 mi NW 18.4 mph 28.8 mph N/A   Mostly Cloudy
2:35 PM 46.4 °F 39.2 °F 23.0 °F 40% 29.90 in 10.0 mi NW 18.4 mph 25.3 mph N/A   Mostly Cloudy
2:55 PM 50.0 °F - 24.8 °F 37% 29.91 in 10.0 mi NW 17.3 mph 25.3 mph N/A   Scattered Clouds
3:15 PM 50.0 °F - 26.6 °F 40% 29.92 in 10.0 mi WNW 17.3 mph 25.3 mph N/A   Scattered Clouds
3:35 PM 50.0 °F - 26.6 °F 40% 29.93 in 10.0 mi NW 17.3 mph 24.2 mph N/A   Scattered Clouds
4:15 PM 46.4 °F 39.5 °F 26.6 °F 46% 29.94 in 10.0 mi NW 17.3 mph 21.9 mph N/A   Mostly Cloudy
4:35 PM 44.6 °F 39.2 °F 26.6 °F 49% 29.95 in 10.0 mi NW 10.4 mph - N/A   Mostly Cloudy
4:55 PM 44.6 °F 38.8 °F 26.6 °F 49% 29.96 in 10.0 mi NW 11.5 mph 18.4 mph N/A   Mostly Cloudy
5:15 PM 44.6 °F 40.7 °F 26.6 °F 49% 29.97 in 10.0 mi NW 6.9 mph - N/A   Mostly Cloudy
5:35 PM 44.6 °F 40.2 °F 28.4 °F 53% 29.97 in 10.0 mi NW 8.1 mph 16.1 mph N/A   Overcast
5:55 PM 44.6 °F 40.2 °F 30.2 °F 57% 29.98 in 10.0 mi NNW 8.1 mph - N/A   Overcast
6:35 PM 42.8 °F 37.5 °F 28.4 °F 57% 30.00 in 10.0 mi WNW 9.2 mph - N/A   Overcast
6:55 PM 42.8 °F 38.6 °F 28.4 °F 57% 30.01 in 10.0 mi WNW 6.9 mph - N/A   Overcast
7:15 PM 42.8 °F 38.6 °F 28.4 °F 57% 30.01 in 10.0 mi WNW 6.9 mph - N/A   Overcast
7:35 PM 42.8 °F 38.6 °F 28.4 °F 57% 30.02 in 10.0 mi WNW 6.9 mph - N/A   Overcast
7:55 PM 42.8 °F 38.6 °F 28.4 °F 57% 30.02 in 10.0 mi NW 6.9 mph - N/A   Overcast
8:15 PM 42.8 °F 38.6 °F 28.4 °F 57% 30.03 in 10.0 mi NW 6.9 mph - N/A   Overcast
8:35 PM 42.8 °F 39.3 °F 28.4 °F 57% 30.03 in 10.0 mi WNW 5.8 mph - N/A   Overcast
8:55 PM 42.8 °F 39.3 °F 28.4 °F 57% 30.03 in 10.0 mi WNW 5.8 mph - N/A   Overcast
9:15 PM 42.8 °F 40.1 °F 28.4 °F 57% 30.04 in 10.0 mi WNW 4.6 mph - N/A   Overcast
9:35 PM 42.8 °F 40.1 °F 28.4 °F 57% 30.04 in 10.0 mi West 4.6 mph - N/A   Overcast
9:55 PM 42.8 °F 41.1 °F 28.4 °F 57% 30.04 in 10.0 mi West 3.5 mph - N/A   Overcast
10:15 PM 41.0 °F - 30.2 °F 65% 30.03 in 10.0 mi Calm Calm - N/A   Overcast
10:35 PM 41.0 °F - 30.2 °F 65% 30.03 in 10.0 mi Calm Calm - N/A   Overcast
10:55 PM 41.0 °F - 30.2 °F 65% 30.03 in 10.0 mi Calm Calm - N/A   Mostly Cloudy
11:15 PM 41.0 °F 39.0 °F 30.2 °F 65% 30.03 in 10.0 mi West 3.5 mph - N/A   Overcast
11:35 PM 41.0 °F 39.0 °F 30.2 °F 65% 30.03 in 10.0 mi WNW 3.5 mph - N/A   Overcast
11:55 PM 41.0 °F - 30.2 °F 65% 30.03 in 10.0 mi Calm Calm - N/A   Overcast